カタログに戻る

SCOUT X-4 R/B

運用中LEO
NORAD 1739·ROCKET BODY·🇺🇸 United States

打ち上げ Nov 19, 1965 から Wallops Flight Facility

Loading…

次のパス (今後24時間)

TLE

最新Source: Space-Track

元期: Sep 14, 2026, 13:09 UTC

1 01739U 65093B   26257.54811362  .00000297  00000-0  10222-3 0  9993
2 01739  59.7021 264.6614 0077210 350.3288   9.6265 14.55308260183331

AllMySatでSCOUT X-4 R/Bをリアルタイム追跡

Download on the App Store